When you browse on this site, cookies collect data to enhance your experience and personalize the content and advertising you see.
Visit our Privacy Policy to learn more. By continuing to use the site, you agree to this use of cookies and data.
  • In Belgium
  • List of Countries
  • For 7 days
  • Water Temperature
  • Satellite Maps
  • Weather Map
  • Weather Widgets
  • user-avatar
    Login

    Hourly Weather Mochudi

    Today, 27 May, Monday

    Time Temperature Precipitation Wind Pressure Humidity
    00:00 +16°C° 0 mm 1 mps 683 mmHg 44%
    01:00 +15°C° 0 mm 1 mps 683 mmHg 45%
    02:00 +14°C° 0 mm 0 mps 683 mmHg 46%
    03:00 +13°C° 0 mm 0 mps 683 mmHg 48%
    04:00 +14°C° 0 mm 1 mps 683 mmHg 50%
    05:00 +13°C° 0 mm 1 mps 683 mmHg 51%
    06:00 +14°C° 0 mm 1 mps 683 mmHg 50%
    07:00 +14°C° 0 mm 1 mps 684 mmHg 49%
    08:00 +15°C° 0 mm 1 mps 684 mmHg 47%
    09:00 +18°C° 0 mm 1 mps 684 mmHg 41%
    10:00 +21°C° 0 mm 1 mps 685 mmHg 35%
    11:00 +24°C° 0 mm 1 mps 686 mmHg 28%
    12:00 +25°C° 0 mm 1 mps 685 mmHg 26%
    13:00 +26°C° 0 mm 1 mps 685 mmHg 23%
    14:00 +27°C° 0 mm 1 mps 684 mmHg 20%
    15:00 +26°C° 0 mm 1 mps 684 mmHg 21%
    16:00 +25°C° 0 mm 1 mps 683 mmHg 22%
    17:00 +24°C° 0 mm 1 mps 683 mmHg 22%
    18:00 +23°C° 0 mm 1 mps 683 mmHg 25%
    19:00 +22°C° 0 mm 1 mps 683 mmHg 27%
    20:00 +20°C° 0 mm 1 mps 683 mmHg 29%
    21:00 +20°C° 0 mm 1 mps 683 mmHg 30%
    22:00 +19°C° 0 mm 1 mps 683 mmHg 31%
    23:00 +17°C° 0 mm 0 mps 683 mmHg 32%

    Tomorrow, 28 May, Tuesday

    Time Temperature Precipitation Wind Pressure Humidity
    00:00 +18°C° 0 mm 1 mps 683 mmHg 33%
    01:00 +18°C° 0 mm 1 mps 683 mmHg 35%
    02:00 +16°C° 0 mm 1 mps 682 mmHg 37%
    03:00 +15°C° 0 mm 1 mps 682 mmHg 39%
    04:00 +14°C° 0 mm 1 mps 682 mmHg 42%
    05:00 +14°C° 0 mm 1 mps 682 mmHg 45%
    06:00 +14°C° 0 mm 1 mps 683 mmHg 44%
    07:00 +15°C° 0 mm 1 mps 683 mmHg 44%
    08:00 +15°C° 0 mm 1 mps 684 mmHg 44%
    09:00 +18°C° 0 mm 1 mps 684 mmHg 39%
    10:00 +20°C° 0 mm 2 mps 685 mmHg 34%
    11:00 +23°C° 0 mm 2 mps 685 mmHg 29%
    12:00 +24°C° 0 mm 2 mps 684 mmHg 26%
    13:00 +25°C° 0 mm 2 mps 684 mmHg 24%
    14:00 +26°C° 0 mm 1 mps 683 mmHg 21%
    15:00 +26°C° 0 mm 1 mps 683 mmHg 22%
    16:00 +25°C° 0 mm 1 mps 682 mmHg 23%
    17:00 +24°C° 0 mm 1 mps 682 mmHg 23%
    18:00 +23°C° 0 mm 1 mps 682 mmHg 26%
    19:00 +21°C° 0 mm 1 mps 682 mmHg 28%
    20:00 +19°C° 0 mm 1 mps 682 mmHg 31%
    21:00 +19°C° 0 mm 1 mps 682 mmHg 32%
    22:00 +16°C° 0 mm 0 mps 683 mmHg 33%
    23:00 +16°C° 0 mm 0 mps 683 mmHg 34%

    Day after tomorrow, 29 May, Wednesday

    Time Temperature Precipitation Wind Pressure Humidity
    00:00 +16°C° 0 mm 1 mps 683 mmHg 36%
    01:00 +16°C° 0 mm 1 mps 682 mmHg 37%
    02:00 +16°C° 0 mm 1 mps 682 mmHg 38%
    03:00 +15°C° 0 mm 1 mps 682 mmHg 40%
    04:00 +13°C° 0 mm 0 mps 682 mmHg 42%
    05:00 +13°C° 0 mm 0 mps 682 mmHg 43%
    06:00 +14°C° 0 mm 1 mps 682 mmHg 43%
    07:00 +15°C° 0 mm 1 mps 683 mmHg 42%
    08:00 +15°C° 0 mm 1 mps 684 mmHg 41%
    09:00 +19°C° 0 mm 1 mps 684 mmHg 36%
    10:00 +20°C° 0 mm 2 mps 685 mmHg 31%
    11:00 +24°C° 0 mm 2 mps 685 mmHg 26%
    12:00 +25°C° 0 mm 2 mps 685 mmHg 24%
    13:00 +26°C° 0 mm 2 mps 684 mmHg 21%
    14:00 +27°C° 0 mm 2 mps 683 mmHg 19%
    15:00 +26°C° 0 mm 1 mps 683 mmHg 19%
    16:00 +26°C° 0 mm 1 mps 683 mmHg 20%
    17:00 +25°C° 0 mm 1 mps 682 mmHg 21%
    18:00 +23°C° 0 mm 1 mps 683 mmHg 23%
    19:00 +21°C° 0 mm 1 mps 683 mmHg 26%
    20:00 +17°C° 0 mm 0 mps 683 mmHg 29%
    21:00 +17°C° 0 mm 0 mps 683 mmHg 30%
    22:00 +16°C° 0 mm 0 mps 683 mmHg 31%
    23:00 +16°C° 0 mm 0 mps 683 mmHg 32%

    30 May, Thursday

    Time Temperature Precipitation Wind Pressure Humidity
    00:00 +16°C° 0 mm 1 mps 683 mmHg 34%
    01:00 +16°C° 0 mm 1 mps 682 mmHg 35%
    02:00 +15°C° 0 mm 1 mps 682 mmHg 37%
    03:00 +15°C° 0 mm 1 mps 682 mmHg 39%
    04:00 +14°C° 0 mm 1 mps 682 mmHg 41%
    05:00 +13°C° 0 mm 1 mps 682 mmHg 43%
    06:00 +14°C° 0 mm 1 mps 683 mmHg 44%
    07:00 +14°C° 0 mm 1 mps 683 mmHg 46%
    08:00 +14°C° 0 mm 2 mps 684 mmHg 47%
    09:00 +17°C° 0 mm 2 mps 684 mmHg 43%
    10:00 +19°C° 0 mm 3 mps 685 mmHg 39%
    11:00 +22°C° 0 mm 3 mps 685 mmHg 35%
    12:00 +24°C° 0 mm 3 mps 684 mmHg 32%
    13:00 +25°C° 0 mm 3 mps 684 mmHg 28%
    14:00 +26°C° 0 mm 2 mps 683 mmHg 24%
    15:00 +25°C° 0 mm 2 mps 683 mmHg 25%
    16:00 +25°C° 0 mm 1 mps 683 mmHg 26%
    17:00 +24°C° 0 mm 1 mps 682 mmHg 26%
    18:00 +23°C° 0 mm 1 mps 682 mmHg 30%
    19:00 +21°C° 0 mm 1 mps 682 mmHg 33%
    20:00 +19°C° 0 mm 1 mps 682 mmHg 37%
    21:00 +19°C° 0 mm 1 mps 682 mmHg 39%
    22:00 +18°C° 0 mm 1 mps 682 mmHg 41%
    23:00 +16°C° 0 mm 1 mps 682 mmHg 43%

    31 May, Friday

    Time Temperature Precipitation Wind Pressure Humidity
    00:00 +16°C° 0 mm 1 mps 682 mmHg 46%
    01:00 +15°C° 0 mm 1 mps 682 mmHg 49%
    02:00 +15°C° 0 mm 1 mps 681 mmHg 52%
    03:00 +14°C° 0 mm 1 mps 681 mmHg 54%
    04:00 +14°C° 0 mm 1 mps 681 mmHg 57%
    05:00 +13°C° 0 mm 1 mps 681 mmHg 59%
    06:00 +14°C° 0 mm 1 mps 681 mmHg 58%
    07:00 +14°C° 0 mm 1 mps 682 mmHg 57%
    08:00 +15°C° 0 mm 1 mps 682 mmHg 56%
    09:00 +18°C° 0 mm 1 mps 682 mmHg 48%
    10:00 +21°C° 0 mm 1 mps 683 mmHg 40%
    11:00 +24°C° 0 mm 1 mps 683 mmHg 32%
    12:00 +25°C° 0 mm 1 mps 683 mmHg 28%
    13:00 +27°C° 0 mm 1 mps 682 mmHg 24%
    14:00 +26°C° 0 mm 0 mps 682 mmHg 20%
    15:00 +25°C° 0 mm 0 mps 681 mmHg 21%
    16:00 +24°C° 0 mm 0 mps 681 mmHg 22%
    17:00 +23°C° 0 mm 0 mps 681 mmHg 23%
    18:00 +24°C° 0 mm 1 mps 681 mmHg 25%
    19:00 +22°C° 0 mm 1 mps 681 mmHg 27%
    20:00 +20°C° 0 mm 1 mps 681 mmHg 29%
    21:00 +20°C° 0 mm 1 mps 681 mmHg 30%
    22:00 +19°C° 0 mm 1 mps 681 mmHg 31%
    23:00 +19°C° 0 mm 1 mps 681 mmHg 32%

    1 June, Saturday

    Time Temperature Precipitation Wind Pressure Humidity
    00:00 +18°C° 0 mm 1 mps 681 mmHg 33%
    01:00 +18°C° 0 mm 1 mps 680 mmHg 33%
    02:00 +16°C° 0 mm 0 mps 680 mmHg 34%
    03:00 +16°C° 0 mm 0 mps 680 mmHg 34%
    04:00 +18°C° 0 mm 1 mps 680 mmHg 34%
    05:00 +18°C° 0 mm 1 mps 681 mmHg 34%
    06:00 +18°C° 0 mm 1 mps 681 mmHg 34%
    07:00 +18°C° 0 mm 1 mps 682 mmHg 33%
    08:00 +18°C° 0 mm 2 mps 682 mmHg 33%
    09:00 +21°C° 0 mm 1 mps 683 mmHg 29%
    10:00 +23°C° 0 mm 1 mps 683 mmHg 25%
    11:00 +25°C° 0 mm 1 mps 683 mmHg 22%
    12:00 +26°C° 0 mm 1 mps 683 mmHg 20%
    13:00 +27°C° 0 mm 2 mps 682 mmHg 19%
    14:00 +28°C° 0 mm 3 mps 682 mmHg 17%
    15:00 +28°C° 0 mm 2 mps 682 mmHg 17%
    16:00 +27°C° 0 mm 2 mps 682 mmHg 18%
    17:00 +27°C° 0 mm 1 mps 682 mmHg 19%
    18:00 +25°C° 0 mm 2 mps 682 mmHg 20%
    19:00 +24°C° 0 mm 2 mps 682 mmHg 22%
    20:00 +21°C° 0 mm 2 mps 682 mmHg 23%
    21:00 +20°C° 0 mm 2 mps 682 mmHg 25%
    22:00 +19°C° 0 mm 2 mps 682 mmHg 26%
    23:00 +18°C° 0 mm 2 mps 682 mmHg 27%
    Show more